星链-6222 (STARLINK-6222 )

导读

STARLINK-6222是美国SpaceX公司星链(Starlink)星座的成员,于2023年5月10日发射升空。星链项目旨在构建全球卫星互联网,为全球偏远地区、海洋航运等场景提供高速网络接入服务。该卫星运行在近地轨道,属于量产小型卫星,通过与地面收发器通信实现信号传输,助力星链完成全球覆盖的组网目标,推动全球卫星互联网基础设施建设。

基本信息
目录编号:
56481
目录名称:
STARLINK-6222
国际标识:
2023-064AK
轨道中心:
EARTH
卫星名称:
星链-6222
卫星全名:
星链-6222 (STARLINK-6222 )
卫星状态:
在轨 (已飞行1214 天)
发射日期:
2023-05-10 UTC
国别 :
美国 (US)
星等 :
--
轨道信息
数据来源 国际轨道数据
星历时间: 2026-09-05T03:38:43+0800
11小时前
查看轨道信息
半长轴: 6950.195km
偏心率: 0.000312
轨道倾角: 70.001°
近地点辐角 267.450°
升交点赤经 32.706°
平近点角 92.631°
近地点: 569.889km
远地点: 574.227km
周期: 96.107分钟
每日圈数: 14.983294
详细信息
固有亮度:
5
最大亮度:
2.5
卫星平台:
Starlink v1.5
覆盖范围:
全球
运营商:
太空探索技术公司
运营商所在国:
美国
制造商(研发单位):
太空探索技术公司
制造商所在国:
美国
使用方式:
暂无
卫星简介
星链(Starlink)计划是由太空探索技术公司(SpaceX)提出的一个巨型低轨卫星互联网星座项目,计划在2019年至2024年间在太空搭建由约1.2万颗卫星组成的“星链”网络,其中1584颗将部署在地球上空550千米处的近地轨道,并从2020年开始工作。该卫星仍在工作。
2D轨道图
3D轨道图
轨道高度分析图
轨道倾角分析图
轨道综合分析图
查看轨道综合分析图
交会数据列表
事件ID 空间交会对象 最接近时刻(TCA) 交会距离 交会风险概率(CRP) 交会风险指数(CRI) 操作
CDM_260907-103205-648106-324921
EZIE-C (63249)
2026-09-07T
10:32:16+0000
1.238 km
极远距离
1.170337E-5 中风险 0.56
CDM_260906-053505-648106-175223
OBJECT T (61752)
2026-09-06T
05:35:49+0000
1.844 km
极远距离
2.319771E-6 低风险 0.42